CCA8582 ZGGG-ZSPD

Flight info

Callsign CCA8582
Flight time N/A
Altitude 35100
Route LMN9 LMN G471 XEBUL DCT ODOPI DCT AKAVO DCT UPNUG W76 AREPI B221 SHZ W58 BK BK91A
Aircraft A321/M-SDE3FGHIRWY/LB1

Departure

Time 2026-05-08 05:42
Airport Guangzhou Baiyun International Airport (ZGGG)

Arrival

Time N/A
Airport Shanghai Pudong International Airport (ZSPD)
Time Latitude Longitude Altitude Speed Heading
2026-05-08 05:06 23.38888 113.30204 59 ft 0 kts 208°
2026-05-08 05:31 23.38888 113.30205 58 ft 1 kts 208°
2026-05-08 05:31 23.38910 113.30217 55 ft 4 kts 208°
2026-05-08 05:31 23.38930 113.30229 51 ft 4 kts 204°
2026-05-08 05:31 23.38953 113.30233 52 ft 4 kts 155°
2026-05-08 05:32 23.38973 113.30215 51 ft 4 kts 120°
2026-05-08 05:32 23.38976 113.30208 52 ft 0 kts 117°
2026-05-08 05:36 23.38970 113.30221 54 ft 8 kts 117°
2026-05-08 05:36 23.38935 113.30295 51 ft 12 kts 117°
2026-05-08 05:36 23.38896 113.30379 54 ft 13 kts 117°
2026-05-08 05:37 23.38864 113.30474 58 ft 14 kts 104°
2026-05-08 05:37 23.38840 113.30580 58 ft 15 kts 104°
2026-05-08 05:37 23.38786 113.30659 54 ft 14 kts 175°
2026-05-08 05:37 23.38687 113.30634 55 ft 15 kts 194°
2026-05-08 05:38 23.38669 113.30629 54 ft 15 kts 194°
2026-05-08 05:38 23.38581 113.30605 55 ft 16 kts 194°
2026-05-08 05:38 23.38470 113.30575 54 ft 17 kts 194°
2026-05-08 05:38 23.38354 113.30544 54 ft 18 kts 194°
2026-05-08 05:39 23.38232 113.30511 52 ft 18 kts 194°
2026-05-08 05:39 23.38105 113.30477 53 ft 19 kts 194°
2026-05-08 05:39 23.37974 113.30442 53 ft 20 kts 194°
2026-05-08 05:39 23.37837 113.30404 56 ft 21 kts 194°
2026-05-08 05:40 23.37697 113.30366 55 ft 18 kts 194°
2026-05-08 05:40 23.37616 113.30393 54 ft 14 kts 115°
2026-05-08 05:40 23.37592 113.30495 56 ft 14 kts 99°
2026-05-08 05:40 23.37647 113.30555 51 ft 5 kts 15°
2026-05-08 05:41 23.37664 113.30560 53 ft 15 kts 15°
2026-05-08 05:41 23.38022 113.30656 55 ft 89 kts 14°
2026-05-08 05:41 23.38822 113.30873 60 ft 145 kts 14°
2026-05-08 05:41 23.39957 113.31173 94 ft 185 kts 14°
2026-05-08 05:42 23.41211 113.31486 734 ft 186 kts 12°
2026-05-08 05:42 23.42470 113.31825 1408 ft 188 kts 15°
2026-05-08 05:42 23.43796 113.32226 1747 ft 209 kts 16°
2026-05-08 05:42 23.45247 113.32676 2129 ft 227 kts 17°
2026-05-08 05:43 23.46776 113.33148 2929 ft 230 kts 17°
2026-05-08 05:43 23.48333 113.33623 3599 ft 234 kts 17°
2026-05-08 05:43 23.49913 113.34103 4215 ft 238 kts 17°
2026-05-08 05:43 23.51525 113.34589 4842 ft 243 kts 16°
2026-05-08 05:44 23.53176 113.35084 5456 ft 248 kts 15°
2026-05-08 05:44 23.54857 113.35585 6052 ft 253 kts 14°
2026-05-08 05:44 23.56585 113.36008 6615 ft 257 kts
2026-05-08 05:44 23.58358 113.36342 7195 ft 261 kts
2026-05-08 05:45 23.60161 113.36695 7759 ft 265 kts 11°
2026-05-08 05:45 23.61859 113.37509 8314 ft 272 kts 35°
2026-05-08 05:45 23.63192 113.39002 8736 ft 286 kts 57°
2026-05-08 05:45 23.63925 113.41068 9044 ft 299 kts 78°
2026-05-08 05:46 23.64374 113.43297 9550 ft 304 kts 77°
2026-05-08 05:46 23.64841 113.45557 10127 ft 309 kts 77°
2026-05-08 05:46 23.65333 113.47908 10239 ft 328 kts 77°
2026-05-08 05:46 23.65862 113.50425 10371 ft 347 kts 77°
2026-05-08 05:47 23.66410 113.53027 10653 ft 357 kts 77°
2026-05-08 05:47 23.66971 113.55698 11097 ft 362 kts 77°
2026-05-08 05:47 23.67532 113.58383 11586 ft 365 kts 78°
2026-05-08 05:47 23.67786 113.61154 12064 ft 369 kts 91°
2026-05-08 05:48 23.67682 113.63955 12552 ft 372 kts 92°
2026-05-08 05:48 23.67567 113.66790 13029 ft 375 kts 92°
2026-05-08 05:48 23.67451 113.69645 13511 ft 378 kts 92°
2026-05-08 05:48 23.67335 113.72526 13970 ft 382 kts 92°
2026-05-08 05:49 23.67220 113.75425 14379 ft 385 kts 92°
2026-05-08 05:49 23.67103 113.78353 14777 ft 388 kts 92°
2026-05-08 05:49 23.66982 113.81309 15194 ft 391 kts 92°
2026-05-08 05:49 23.66860 113.84285 15590 ft 394 kts 92°
2026-05-08 05:50 23.66739 113.87283 15964 ft 397 kts 92°
2026-05-08 05:50 23.66617 113.90294 16367 ft 399 kts 92°
2026-05-08 05:50 23.66495 113.93332 16756 ft 402 kts 92°
2026-05-08 05:50 23.66368 113.96392 17134 ft 405 kts 92°
2026-05-08 05:51 23.66240 113.99469 17515 ft 408 kts 92°
2026-05-08 05:51 23.66112 114.02563 17895 ft 410 kts 92°
2026-05-08 05:51 23.65984 114.05684 18282 ft 413 kts 92°
2026-05-08 05:51 23.65855 114.08824 18616 ft 416 kts 92°
2026-05-08 05:52 23.65724 114.11981 18969 ft 418 kts 92°
2026-05-08 05:52 23.65590 114.15159 19306 ft 420 kts 92°
2026-05-08 05:52 23.65453 114.18347 19628 ft 423 kts 92°
2026-05-08 05:52 23.65314 114.21554 19951 ft 424 kts 92°
2026-05-08 05:53 23.65180 114.24779 20278 ft 426 kts 90°
2026-05-08 05:53 23.65409 114.28000 20579 ft 427 kts 78°
2026-05-08 05:53 23.66249 114.31102 20885 ft 427 kts 65°
2026-05-08 05:53 23.67656 114.33937 21187 ft 426 kts 53°
2026-05-08 05:54 23.69558 114.36395 21500 ft 424 kts 41°
2026-05-08 05:54 23.71843 114.38416 21793 ft 423 kts 34°
2026-05-08 05:54 23.74203 114.40338 22122 ft 424 kts 34°
2026-05-08 05:54 23.76572 114.42274 22428 ft 426 kts 34°
2026-05-08 05:55 23.78941 114.44217 22718 ft 427 kts 34°
2026-05-08 05:55 23.81320 114.46172 23002 ft 429 kts 34°
2026-05-08 05:55 23.83708 114.48139 23310 ft 431 kts 34°
2026-05-08 05:55 23.86111 114.50118 23636 ft 433 kts 34°
2026-05-08 05:56 23.88521 114.52101 23889 ft 435 kts 34°
2026-05-08 05:56 23.90945 114.54099 24129 ft 438 kts 34°
2026-05-08 05:56 23.93378 114.56105 24349 ft 440 kts 34°
2026-05-08 05:56 23.95828 114.58125 24589 ft 442 kts 33°
2026-05-08 05:57 23.98285 114.60150 24821 ft 444 kts 33°
2026-05-08 05:57 24.00759 114.62186 25046 ft 446 kts 33°
2026-05-08 05:57 24.03238 114.64227 25264 ft 448 kts 33°
2026-05-08 05:57 24.05731 114.66285 25498 ft 450 kts 33°
2026-05-08 05:58 24.08229 114.68351 25736 ft 451 kts 33°
2026-05-08 05:58 24.09924 114.69754 25905 ft 453 kts 33°
2026-05-08 05:58 24.13258 114.72517 26218 ft 455 kts 33°
2026-05-08 05:58 24.15790 114.74614 26444 ft 458 kts 33°
2026-05-08 05:59 24.18337 114.76719 26643 ft 460 kts 32°
2026-05-08 05:59 24.20063 114.78144 26801 ft 462 kts 32°
2026-05-08 05:59 24.23472 114.80963 27120 ft 464 kts 32°
2026-05-08 05:59 24.26056 114.83102 27355 ft 467 kts 33°
2026-05-08 06:00 24.28508 114.85459 27562 ft 474 kts 42°
2026-05-08 06:00 24.30639 114.88245 27773 ft 480 kts 49°
2026-05-08 06:00 24.32677 114.91165 27977 ft 482 kts 49°
2026-05-08 06:00 24.34719 114.94087 28197 ft 484 kts 49°
2026-05-08 06:01 24.36772 114.97016 28408 ft 486 kts 48°
2026-05-08 06:01 24.38838 114.99959 28629 ft 488 kts 48°
2026-05-08 06:01 24.40915 115.02919 28835 ft 490 kts 48°
2026-05-08 06:01 24.42999 115.05893 29052 ft 492 kts 48°
2026-05-08 06:02 24.45085 115.08873 29267 ft 493 kts 48°
2026-05-08 06:02 24.47180 115.11869 29459 ft 495 kts 48°
2026-05-08 06:02 24.49283 115.14875 29655 ft 498 kts 48°
2026-05-08 06:02 24.51397 115.17896 29826 ft 499 kts 48°
2026-05-08 06:03 24.53508 115.20921 30005 ft 501 kts 48°
2026-05-08 06:03 24.55630 115.23966 30160 ft 503 kts 48°
2026-05-08 06:03 24.57757 115.27021 30316 ft 504 kts 48°
2026-05-08 06:03 24.59890 115.30090 30479 ft 505 kts 48°
2026-05-08 06:04 24.62025 115.33163 30639 ft 507 kts 48°
2026-05-08 06:04 24.64166 115.36239 30765 ft 508 kts 48°
2026-05-08 06:04 24.66316 115.39322 30933 ft 508 kts 48°
2026-05-08 06:04 24.68456 115.42421 31108 ft 508 kts 49°
2026-05-08 06:05 24.70548 115.45555 31301 ft 508 kts 50°
2026-05-08 06:05 24.72597 115.48713 31470 ft 508 kts 51°
2026-05-08 06:05 24.74630 115.51899 31666 ft 508 kts 51°
2026-05-08 06:05 24.76659 115.55088 31850 ft 508 kts 51°
2026-05-08 06:06 24.78688 115.58260 32045 ft 507 kts 50°
2026-05-08 06:06 24.80727 115.61420 32205 ft 507 kts 50°
2026-05-08 06:06 24.82778 115.64577 32365 ft 507 kts 50°
2026-05-08 06:06 24.84835 115.67736 32576 ft 506 kts 50°
2026-05-08 06:07 24.86886 115.70886 32769 ft 506 kts 50°
2026-05-08 06:07 24.88932 115.74034 32979 ft 505 kts 50°
2026-05-08 06:07 24.90969 115.77178 33157 ft 505 kts 50°
2026-05-08 06:07 24.93009 115.80336 33349 ft 505 kts 50°
2026-05-08 06:08 24.95044 115.83493 33543 ft 505 kts 50°
2026-05-08 06:08 24.97048 115.86604 33750 ft 505 kts 50°
2026-05-08 06:08 24.99109 115.89803 33916 ft 505 kts 50°
2026-05-08 06:08 25.01141 115.92957 34071 ft 504 kts 50°
2026-05-08 06:09 25.03173 115.96110 34220 ft 504 kts 50°
2026-05-08 06:09 25.05193 115.99249 34396 ft 503 kts 50°
2026-05-08 06:09 25.07217 116.02394 34555 ft 502 kts 50°
2026-05-08 06:09 25.09242 116.05539 34745 ft 501 kts 50°
2026-05-08 06:10 25.11252 116.08664 34935 ft 500 kts 50°
2026-05-08 06:10 25.13269 116.11804 35083 ft 500 kts 50°
2026-05-08 06:10 25.15272 116.14922 35133 ft 498 kts 50°
2026-05-08 06:11 25.18587 116.20088 35136 ft 495 kts 50°
2026-05-08 06:11 25.23217 116.27313 35137 ft 495 kts 50°
2026-05-08 06:12 25.27191 116.33528 35150 ft 495 kts 50°
2026-05-08 06:12 25.30516 116.38734 35131 ft 496 kts 49°
2026-05-08 06:13 25.35143 116.45974 35145 ft 496 kts 50°
2026-05-08 06:13 25.38478 116.51199 35146 ft 496 kts 50°
2026-05-08 06:14 25.42455 116.57442 35148 ft 496 kts 50°
2026-05-08 06:14 25.46416 116.63688 35157 ft 496 kts 50°
2026-05-08 06:15 25.50354 116.69896 35184 ft 496 kts 49°
2026-05-08 06:15 25.54323 116.76159 35167 ft 497 kts 50°
2026-05-08 06:16 25.58315 116.82477 35166 ft 497 kts 50°
2026-05-08 06:16 25.62271 116.88747 35149 ft 497 kts 50°
2026-05-08 06:17 25.68186 116.98109 35157 ft 496 kts 50°
2026-05-08 06:17 25.72144 117.04372 35153 ft 496 kts 50°
2026-05-08 06:18 25.76099 117.10649 35156 ft 496 kts 50°
2026-05-08 06:18 25.80045 117.16939 35147 ft 496 kts 50°
2026-05-08 06:19 25.83980 117.23240 35152 ft 496 kts 50°
2026-05-08 06:19 25.87916 117.29522 35152 ft 496 kts 50°
2026-05-08 06:20 25.91859 117.35801 35173 ft 496 kts 50°
2026-05-08 06:20 25.95803 117.42108 35164 ft 497 kts 50°
2026-05-08 06:21 25.99738 117.48421 35138 ft 497 kts 50°
2026-05-08 06:21 26.03667 117.54733 35137 ft 496 kts 50°
2026-05-08 06:22 26.07596 117.61044 35149 ft 496 kts 50°
2026-05-08 06:22 26.11520 117.67364 35179 ft 497 kts 50°
2026-05-08 06:23 26.15450 117.73693 35138 ft 498 kts 50°
2026-05-08 06:23 26.19388 117.80037 35125 ft 498 kts 49°
2026-05-08 06:24 26.23330 117.86397 35139 ft 500 kts 50°
2026-05-08 06:24 26.27269 117.92774 35140 ft 499 kts 50°
2026-05-08 06:25 26.31208 117.99160 35157 ft 500 kts 50°
2026-05-08 06:25 26.35120 118.05504 35155 ft 501 kts 50°
2026-05-08 06:26 26.39068 118.11928 35158 ft 501 kts 50°
2026-05-08 06:26 26.43004 118.18324 35160 ft 501 kts 50°
2026-05-08 06:27 26.46939 118.24737 35167 ft 500 kts 50°
2026-05-08 06:27 26.50865 118.31151 35174 ft 500 kts 50°
2026-05-08 06:28 26.54803 118.37575 35178 ft 501 kts 50°
2026-05-08 06:28 26.58735 118.44006 35182 ft 502 kts 50°
2026-05-08 06:29 26.62655 118.50443 35168 ft 500 kts 50°
2026-05-08 06:29 26.66568 118.56870 35176 ft 500 kts 50°
2026-05-08 06:30 26.70487 118.63301 35175 ft 500 kts 50°
2026-05-08 06:30 26.74409 118.69743 35193 ft 501 kts 50°
2026-05-08 06:31 26.78315 118.76174 35193 ft 501 kts 50°
2026-05-08 06:31 26.82228 118.82635 35198 ft 502 kts 50°
2026-05-08 06:32 26.86136 118.89108 35197 ft 502 kts 50°
2026-05-08 06:32 26.90049 118.95585 35202 ft 502 kts 50°
2026-05-08 06:33 26.93963 119.02072 35227 ft 503 kts 50°
2026-05-08 06:33 26.97883 119.08577 35221 ft 504 kts 50°
2026-05-08 06:34 27.01803 119.15092 35225 ft 504 kts 50°
2026-05-08 06:34 27.05721 119.21620 35210 ft 504 kts 50°
2026-05-08 06:35 27.09640 119.28147 35206 ft 504 kts 50°
2026-05-08 06:35 27.13556 119.34689 35217 ft 505 kts 50°
2026-05-08 06:36 27.17474 119.41249 35213 ft 506 kts 50°
2026-05-08 06:36 27.21365 119.47761 35213 ft 506 kts 50°
2026-05-08 06:37 27.25284 119.54322 35221 ft 507 kts 51°
2026-05-08 06:37 27.28695 119.61325 35256 ft 512 kts 57°
2026-05-08 06:38 27.31963 119.68449 35239 ft 512 kts 57°
2026-05-08 06:38 27.35222 119.75568 35244 ft 512 kts 57°
2026-05-08 06:39 27.38494 119.82695 35243 ft 512 kts 57°
2026-05-08 06:39 27.41764 119.89815 35256 ft 512 kts 57°
2026-05-08 06:40 27.45031 119.96948 35255 ft 513 kts 57°
2026-05-08 06:40 27.48289 120.04097 35274 ft 513 kts 57°
2026-05-08 06:41 27.51549 120.11262 35276 ft 514 kts 57°
2026-05-08 06:41 27.54807 120.18426 35274 ft 514 kts 57°
2026-05-08 06:42 27.58070 120.25604 35267 ft 514 kts 57°
2026-05-08 06:42 27.61406 120.32711 35268 ft 508 kts 50°
2026-05-08 06:43 27.65903 120.38635 35271 ft 489 kts 32°
2026-05-08 06:43 27.68593 120.40908 35270 ft 478 kts 23°
2026-05-08 06:43 27.71398 120.42907 35270 ft 477 kts 23°
2026-05-08 06:44 27.77005 120.46932 35265 ft 478 kts 24°
2026-05-08 06:44 27.82602 120.50989 35268 ft 478 kts 24°
2026-05-08 06:45 27.88204 120.55051 35287 ft 479 kts 24°
2026-05-08 06:45 27.93814 120.59108 35282 ft 479 kts 24°
2026-05-08 06:46 27.99402 120.63125 35276 ft 475 kts 20°
2026-05-08 06:46 28.02351 120.64696 35275 ft 463 kts 10°
2026-05-08 06:46 28.05398 120.65697 35277 ft 450 kts
2026-05-08 06:47 28.11519 120.66435 35297 ft 442 kts 355°
2026-05-08 06:47 28.17655 120.67031 35288 ft 443 kts 355°
2026-05-08 06:48 28.23796 120.67641 35285 ft 443 kts 355°
2026-05-08 06:48 28.29923 120.68245 35273 ft 442 kts 355°
2026-05-08 06:49 28.36058 120.68844 35303 ft 442 kts 354°
2026-05-08 06:49 28.42197 120.69453 35300 ft 443 kts 355°
2026-05-08 06:50 28.48337 120.70063 35298 ft 444 kts 355°
2026-05-08 06:50 28.54500 120.70682 35306 ft 445 kts 355°
2026-05-08 06:51 28.60669 120.71311 35327 ft 444 kts 355°
2026-05-08 06:51 28.66816 120.71936 35325 ft 443 kts 355°
2026-05-08 06:52 28.72966 120.72562 35323 ft 444 kts 355°
2026-05-08 06:52 28.78084 120.73120 35319 ft 445 kts 355°
2026-05-08 06:53 28.85279 120.73932 35320 ft 443 kts 355°
2026-05-08 06:53 28.91411 120.74593 35315 ft 443 kts 354°
2026-05-08 06:54 28.97545 120.75208 35314 ft 442 kts 354°
2026-05-08 06:54 29.03676 120.75831 35313 ft 443 kts 355°
2026-05-08 06:55 29.09777 120.76460 35336 ft 443 kts 354°
2026-05-08 06:55 29.15917 120.77093 35330 ft 443 kts 354°
2026-05-08 06:56 29.22062 120.77723 35328 ft 444 kts 354°
2026-05-08 06:56 29.28204 120.78364 35308 ft 443 kts 354°
2026-05-08 06:57 29.31272 120.78684 34939 ft 441 kts 354°
2026-05-08 06:57 29.34317 120.79004 34532 ft 438 kts 354°
2026-05-08 06:57 29.37340 120.79322 34116 ft 434 kts 354°
2026-05-08 06:57 29.40335 120.79635 33645 ft 431 kts 355°
2026-05-08 06:58 29.43314 120.79947 33183 ft 428 kts 355°
2026-05-08 06:58 29.46265 120.80252 32731 ft 425 kts 355°
2026-05-08 06:58 29.49195 120.80554 32286 ft 422 kts 355°
2026-05-08 06:58 29.52109 120.80855 31857 ft 419 kts 355°
2026-05-08 06:59 29.54988 120.81273 31509 ft 424 kts
2026-05-08 06:59 29.57843 120.82349 31273 ft 438 kts 16°
2026-05-08 06:59 29.60505 120.84165 31032 ft 453 kts 30°
2026-05-08 06:59 29.62802 120.86676 30656 ft 461 kts 44°
2026-05-08 07:00 29.64655 120.89700 30094 ft 466 kts 51°
2026-05-08 07:00 29.65824 120.91747 29735 ft 465 kts 51°
2026-05-08 07:00 29.66455 120.92855 29547 ft 464 kts 51°
2026-05-08 07:01 29.67465 120.94622 29240 ft 462 kts 51°
2026-05-08 07:01 29.69215 120.97683 28762 ft 458 kts 51°
2026-05-08 07:01 29.70965 121.00746 28275 ft 455 kts 51°
2026-05-08 07:01 29.72695 121.03776 27775 ft 452 kts 52°
2026-05-08 07:02 29.74412 121.06790 27348 ft 448 kts 52°
2026-05-08 07:02 29.76114 121.09772 26849 ft 446 kts 52°
2026-05-08 07:02 29.77815 121.12747 26392 ft 443 kts 52°
2026-05-08 07:02 29.79505 121.15700 25932 ft 440 kts 52°
2026-05-08 07:03 29.81182 121.18629 25463 ft 437 kts 53°
2026-05-08 07:03 29.82852 121.21544 24990 ft 435 kts 52°
2026-05-08 07:03 29.84512 121.24453 24494 ft 433 kts 53°
2026-05-08 07:03 29.86155 121.27340 24024 ft 431 kts 53°
2026-05-08 07:04 29.87805 121.30217 23476 ft 428 kts 50°
2026-05-08 07:04 29.89728 121.32789 22970 ft 420 kts 38°
2026-05-08 07:04 29.91945 121.34826 22550 ft 407 kts 27°
2026-05-08 07:04 29.94367 121.36412 22123 ft 398 kts 22°
2026-05-08 07:05 29.96788 121.37919 21712 ft 392 kts 22°
2026-05-08 07:05 29.99171 121.39411 21298 ft 387 kts 22°
2026-05-08 07:05 30.01526 121.40887 20887 ft 383 kts 22°
2026-05-08 07:05 30.03858 121.42351 20474 ft 380 kts 22°